Location: Andiroba
(19.8650°S, 43.9258°W)
Time: 23:42:01
(UTC+00:00)

Delta 2 Rocket - Pass Details

Date: 15 June 2024
Orbit: 890 x 1677 km, 26.4° (Epoch: 24 July)

Event Time Altitude Azimuth Distance (km) Brightness Sun altitude
Exits shadow 08:37:24 12° 274° (W) 2,661 5.7 -11.9°
Maximum altitude 08:43:35 64° 194° (SSW) 1,023 4.0 -10.5°
Drops below altitude 10° 08:49:34 10° 113° (ESE) 2,558 6.9 -9.2°
Sets 08:52:07 0° 109° (ESE) 3,499 7.8 -8.7°
